Hourly Weather Alkhan-Kala

Today, 4 March, Thursday

Time Temperature Precipitation Wind Pressure Humidity
00:00 +1°C° 0.2 mm 3 mps 753 mmHg 85%
01:00 +1°C° 0.1 mm 3 mps 753 mmHg 85%
02:00 +1°C° 0.1 mm 3 mps 754 mmHg 84%
03:00 +1°C° 0 mm 3 mps 754 mmHg 83%
04:00 0°C° 0 mm 3 mps 754 mmHg 81%
05:00 0°C° 0 mm 3 mps 755 mmHg 79%
06:00 +1°C° 0 mm 2 mps 755 mmHg 77%
07:00 +2°C° 0 mm 2 mps 755 mmHg 70%
08:00 +3°C° 0 mm 2 mps 755 mmHg 63%
09:00 +5°C° 0 mm 1 mps 755 mmHg 56%
10:00 +6°C° 0 mm 1 mps 754 mmHg 53%
11:00 +7°C° 0 mm 1 mps 754 mmHg 50%
12:00 +8°C° 0 mm 1 mps 754 mmHg 47%
13:00 +8°C° 0 mm 1 mps 753 mmHg 45%
14:00 +9°C° 0 mm 1 mps 753 mmHg 43%
15:00 +9°C° 0 mm 1 mps 753 mmHg 40%
16:00 +8°C° 0 mm 1 mps 753 mmHg 43%
17:00 +7°C° 0 mm 1 mps 753 mmHg 46%
18:00 +6°C° 0 mm 1 mps 753 mmHg 49%
19:00 +6°C° 0 mm 1 mps 753 mmHg 51%
20:00 +5°C° 0 mm 1 mps 753 mmHg 53%
21:00 +5°C° 0 mm 1 mps 753 mmHg 55%
22:00 +4°C° 0 mm 1 mps 753 mmHg 56%
23:00 +4°C° 0 mm 1 mps 752 mmHg 56%

Tomorrow, 5 March, Friday

Time Temperature Precipitation Wind Pressure Humidity
00:00 +4°C° 0 mm 1 mps 752 mmHg 57%
01:00 +3°C° 0 mm 1 mps 752 mmHg 57%
02:00 +3°C° 0 mm 1 mps 752 mmHg 58%
03:00 +2°C° 0 mm 0 mps 751 mmHg 58%
04:00 +2°C° 0 mm 0 mps 751 mmHg 58%
05:00 +2°C° 0 mm 0 mps 751 mmHg 58%
06:00 +1°C° 0 mm 0 mps 750 mmHg 57%
07:00 +3°C° 0 mm 0 mps 750 mmHg 53%
08:00 +5°C° 0 mm 1 mps 750 mmHg 49%
09:00 +7°C° 0 mm 1 mps 750 mmHg 45%
10:00 +8°C° 0 mm 1 mps 749 mmHg 42%
11:00 +9°C° 0 mm 1 mps 749 mmHg 40%
12:00 +9°C° 0 mm 2 mps 749 mmHg 37%
13:00 +10°C° 0 mm 2 mps 748 mmHg 36%
14:00 +10°C° 0 mm 2 mps 748 mmHg 35%
15:00 +12°C° 0 mm 1 mps 748 mmHg 34%
16:00 +11°C° 0 mm 1 mps 748 mmHg 37%
17:00 +10°C° 0 mm 1 mps 749 mmHg 41%
18:00 +9°C° 0 mm 1 mps 749 mmHg 44%
19:00 +8°C° 0 mm 1 mps 750 mmHg 47%
20:00 +8°C° 0 mm 1 mps 750 mmHg 49%
21:00 +7°C° 0 mm 1 mps 750 mmHg 51%
22:00 +7°C° 0 mm 1 mps 750 mmHg 52%
23:00 +6°C° 0 mm 1 mps 750 mmHg 53%

Day after tomorrow, 6 March, Saturday

Time Temperature Precipitation Wind Pressure Humidity
00:00 +6°C° 0 mm 1 mps 750 mmHg 54%
01:00 +6°C° 0 mm 1 mps 750 mmHg 55%
02:00 +5°C° 0 mm 1 mps 750 mmHg 55%
03:00 +5°C° 0 mm 1 mps 750 mmHg 56%
04:00 +5°C° 0 mm 1 mps 750 mmHg 56%
05:00 +5°C° 0 mm 1 mps 750 mmHg 55%
06:00 +5°C° 0 mm 1 mps 750 mmHg 55%
07:00 +6°C° 0 mm 1 mps 749 mmHg 50%
08:00 +8°C° 0 mm 1 mps 749 mmHg 45%
09:00 +9°C° 0 mm 0 mps 748 mmHg 40%
10:00 +12°C° 0 mm 1 mps 748 mmHg 36%
11:00 +14°C° 0 mm 1 mps 747 mmHg 31%
12:00 +15°C° 0 mm 1 mps 747 mmHg 26%
13:00 +16°C° 0 mm 2 mps 746 mmHg 25%
14:00 +16°C° 0 mm 2 mps 746 mmHg 25%
15:00 +17°C° 0 mm 2 mps 745 mmHg 24%
16:00 +15°C° 0 mm 2 mps 745 mmHg 28%
17:00 +14°C° 0 mm 1 mps 746 mmHg 32%
18:00 +13°C° 0 mm 1 mps 746 mmHg 36%
19:00 +12°C° 0 mm 1 mps 746 mmHg 38%
20:00 +11°C° 0 mm 1 mps 746 mmHg 40%
21:00 +11°C° 0 mm 1 mps 746 mmHg 42%
22:00 +9°C° 0 mm 2 mps 746 mmHg 44%
23:00 +9°C° 0 mm 3 mps 746 mmHg 45%

7 March, Sunday

Time Temperature Precipitation Wind Pressure Humidity
00:00 +9°C° 0 mm 3 mps 746 mmHg 46%
01:00 +8°C° 0 mm 3 mps 747 mmHg 55%
02:00 +8°C° 0 mm 3 mps 747 mmHg 65%
03:00 +6°C° 0 mm 4 mps 748 mmHg 74%
04:00 +4°C° 0.8 mm 3 mps 749 mmHg 79%
05:00 +3°C° 0.8 mm 3 mps 749 mmHg 85%
06:00 +1°C° 0.8 mm 3 mps 750 mmHg 90%
07:00 0°C° 0.6 mm 4 mps 751 mmHg 86%
08:00 0°C° 0.6 mm 4 mps 751 mmHg 82%
09:00 0°C° 0.6 mm 5 mps 752 mmHg 77%
10:00 +1°C° 0.2 mm 4 mps 751 mmHg 67%
11:00 +1°C° 0.2 mm 4 mps 751 mmHg 57%
12:00 +3°C° 0.2 mm 4 mps 751 mmHg 47%
13:00 +3°C° 0.1 mm 4 mps 751 mmHg 45%
14:00 +3°C° 0.1 mm 3 mps 751 mmHg 43%
15:00 +3°C° 0.1 mm 3 mps 751 mmHg 41%
16:00 +4°C° 0 mm 2 mps 751 mmHg 43%
17:00 +4°C° 0 mm 1 mps 752 mmHg 45%
18:00 +4°C° 0 mm 1 mps 752 mmHg 47%
19:00 +3°C° 0 mm 1 mps 752 mmHg 49%
20:00 +2°C° 0 mm 0 mps 753 mmHg 51%
21:00 +1°C° 0 mm 0 mps 753 mmHg 52%
22:00 +1°C° 0 mm 0 mps 753 mmHg 54%
23:00 +1°C° 0 mm 1 mps 753 mmHg 56%

8 March, Monday

Time Temperature Precipitation Wind Pressure Humidity
00:00 +1°C° 0 mm 1 mps 753 mmHg 58%
01:00 +1°C° 0 mm 1 mps 753 mmHg 59%
02:00 0°C° 0 mm 0 mps 753 mmHg 59%
03:00 0°C° 0 mm 0 mps 752 mmHg 60%
04:00 -1°C° 0 mm 0 mps 752 mmHg 60%
05:00 -1°C° 0 mm 0 mps 752 mmHg 61%
06:00 -1°C° 0 mm 0 mps 752 mmHg 62%
07:00 0°C° 0 mm 0 mps 752 mmHg 57%
08:00 +2°C° 0 mm 0 mps 752 mmHg 53%
09:00 +3°C° 0 mm 0 mps 752 mmHg 48%
10:00 +5°C° 0 mm 1 mps 751 mmHg 46%
11:00 +5°C° 0 mm 2 mps 751 mmHg 43%
12:00 +5°C° 0 mm 3 mps 750 mmHg 40%
13:00 +6°C° 0 mm 2 mps 749 mmHg 40%
14:00 +6°C° 0 mm 2 mps 749 mmHg 40%
15:00 +7°C° 0 mm 2 mps 748 mmHg 40%
16:00 +6°C° 0 mm 2 mps 749 mmHg 44%
17:00 +6°C° 0 mm 1 mps 749 mmHg 48%
18:00 +5°C° 0 mm 1 mps 749 mmHg 53%
19:00 +5°C° 0 mm 1 mps 749 mmHg 57%
20:00 +4°C° 0 mm 1 mps 750 mmHg 62%
21:00 +4°C° 0 mm 1 mps 750 mmHg 66%
22:00 +3°C° 0 mm 1 mps 750 mmHg 68%
23:00 +3°C° 0 mm 1 mps 750 mmHg 70%

9 March, Tuesday

Time Temperature Precipitation Wind Pressure Humidity
00:00 +1°C° 0 mm 0 mps 750 mmHg 72%
01:00 +1°C° 0 mm 0 mps 749 mmHg 72%
02:00 +1°C° 0 mm 0 mps 749 mmHg 72%
03:00 +1°C° 0 mm 0 mps 749 mmHg 72%
04:00 +1°C° 0 mm 0 mps 749 mmHg 73%
05:00 +1°C° 0 mm 0 mps 749 mmHg 73%
06:00 0°C° 0 mm 0 mps 749 mmHg 74%
07:00 +3°C° 0 mm 1 mps 749 mmHg 68%
08:00 +4°C° 0 mm 1 mps 749 mmHg 62%
09:00 +5°C° 0 mm 1 mps 748 mmHg 56%
10:00 +5°C° 0 mm 2 mps 748 mmHg 53%
11:00 +6°C° 0 mm 2 mps 747 mmHg 50%
12:00 +8°C° 0 mm 3 mps 747 mmHg 47%
13:00 +8°C° 0 mm 2 mps 747 mmHg 47%
14:00 +8°C° 0 mm 2 mps 747 mmHg 46%
15:00 +9°C° 0 mm 2 mps 746 mmHg 46%
16:00 +8°C° 0 mm 2 mps 747 mmHg 51%
17:00 +7°C° 0 mm 2 mps 747 mmHg 56%
18:00 +6°C° 0 mm 2 mps 747 mmHg 62%
19:00 +6°C° 0 mm 2 mps 748 mmHg 66%
20:00 +6°C° 0 mm 1 mps 748 mmHg 71%
21:00 +5°C° 0 mm 1 mps 748 mmHg 75%
22:00 +5°C° 0 mm 1 mps 748 mmHg 75%
23:00 +4°C° 0 mm 1 mps 748 mmHg 76%
Show more